Flag for Central African Republic Weather past 2 weeks in Bimbo, Central African Republic

Now
84 °F

Clear.


Feels Like: 83 °F
Forecast: 65 / 100 °F
Wind: No wind

Location: Bangui Airport

Current Time: Jan 31, 2015 at 7:46:28 PM

Latest Report: Jan 31, 2015 at 7:00 PM


Visibility: 4 mi

Pressure: 29.80 "Hg

Humidity: 40%

Dew point: 57 °F

Location of BimboLocation

Historic Weather in Bimbo — Graph

°F

Bimbo temperature yesterday

Maximum temperature yesterday: 95 °F (at 2:00 PM)
Minimum temperature yesterday: 72 °F (at 6:00 AM)
Average temperature yesterday: 82 °F

Past Weeks' High & Low Weather Summary

 TemperatureHumidityPressure
High99 °F (Jan 22, 3:00 PM)100% (Jan 24, 3:00 AM)30.01 "Hg (Jan 24, 3:00 AM)
Low57 °F (Jan 17, 6:00 AM)11% (Jan 31, 1:00 PM)29.71 "Hg (Jan 24, 3:00 PM)
Average80 °F67%29.84 "Hg
* Reported Jan 16 6:00 PM — Jan 31 6:00 PM, Bimbo, Weather by CustomWeather, © 2014

Note: Actual official high and low records may vary slightly from our data, if they occured in-between our weather recording intervals... More about our weather records

Advertising

Bimbo weather history for previous 24 hours

 ConditionsComfort  
Time TempWeatherWind HumidityBarometerVisibility
6:00 PM
Jan 31
90 °FClear.No wind29%29.77 "Hg4 mi
5:00 PM95 °FSunny.No wind25%29.77 "Hg10 mi
4:00 PM99 °FSunny.3 mph14%29.77 "Hg10 mi
3:00 PM99 °FSunny.3 mph13%29.77 "Hg10 mi
2:00 PM99 °FExtremely hot.6 mph13%29.80 "HgN/A
1:00 PM97 °FSunny.3 mph11%29.83 "Hg10 mi
12:00 PM95 °FSunny.5 mph15%29.89 "Hg10 mi
11:00 AM95 °FSunny.7 mph14%29.92 "Hg10 mi
10:00 AM90 °FSunny.2 mph41%29.95 "Hg10 mi
9:00 AM81 °FClear.No wind70%29.95 "Hg4 mi
8:00 AM72 °FClear.No wind83%29.95 "Hg4 mi
7:00 AM68 °FSunny.No wind88%29.92 "Hg10 mi
6:00 AM68 °FClear.No wind83%29.89 "Hg10 mi
5:00 AM68 °FClear.No wind83%29.89 "Hg10 mi
3:00 AM70 °FClear.No wind83%29.86 "Hg10 mi
2:00 AM72 °FClear.No wind78%29.86 "Hg10 mi
1:00 AM72 °FClear.No wind83%29.86 "Hg10 mi
12:00 AM73 °FClear.No wind83%29.86 "Hg5 mi
11:00 PM
Jan 30
75 °FClear.No wind83%29.86 "Hg5 mi
10:00 PM77 °FClear.No wind83%29.89 "Hg5 mi
9:00 PM79 °FClear.No wind79%29.86 "Hg5 mi
8:00 PM81 °FClear.No wind74%29.86 "Hg5 mi
7:00 PM82 °FClear.No wind66%29.83 "Hg5 mi
Weather by CustomWeather, © 2014

See weather overviewHow to use our weather pages